Location: ČR
(50.0000°N, 15.0000°E)
Time: 15:06:46
(UTC+00:00)

Explorer 7 - Pass Details

Date: 23 October 2021
Orbit: 483 x 675 km, 50.3° (Epoch: 27 November)

Event Time Altitude Azimuth Distance (km) Brightness Sun altitude
Rises 22:27:19 0° 261° (W) 2,724 - -51.6°
Reaches altitude 10° 22:29:29 10° 262° (W) 1,861 - -51.6°
Maximum altitude 22:33:46 90° 348° (NNW) 598 - -51.7°
Drops below altitude 10° 22:38:20 10° 83° (E) 1,988 - -51.7°
Sets 22:40:43 0° 84° (E) 2,925 - -51.7°
